Location: Pedholt
(56.0260°N, 10.2097°E)
Time: 17:14:41
(UTC+00:00)

A-11 Canister half - Pass Details

Date: 29 July 2021
Orbit: 1515 x 1685 km, 47.2° (Epoch: 20 September)

Event Time Altitude Azimuth Distance (km) Brightness Sun altitude
Rises 00:34:28 0° 283° (WNW) 4,938 11.6 -13.8°
Reaches altitude 10° 00:39:15 10° 265° (W) 3,953 10.9 -13.6°
Maximum altitude 00:44:43 16° 231° (SW) 3,467 10.4 -13.4°
Enters shadow 00:47:08 15° 215° (SW) 3,560 10.3 -13.3°
Drops below altitude 10° 00:50:11 10° 198° (SSW) 3,928 - -13.1°
Sets 00:54:57 0° 179° (S) 4,893 - -12.9°
